Toluca Jose Maria, Mexico

8:45 AM CDT on June 23, 2017 (GMT -0500)
Lic Adolfo Lopez Mateos International

Weather History for MMTO - March, 2013

Change the Weather History Date:

Friday, March 8, 2013

  Actual Average Record
Temperature  
Mean Temperature 54 °F -  
Max Temperature 71 °F 71 °F 80 °F (2003)
Min Temperature 37 °F 36 °F 26 °F (2008)
Degree Days  
Heating Degree Days 11    
Growing Degree Days 4 (Base 50)    
Moisture  
Dew Point 30 °F    
Average Humidity 44    
Maximum Humidity 75    
Minimum Humidity 20    
Precipitation  
Precipitation 0.00 in - - ()
Sea Level Pressure  
Sea Level Pressure 30.26 in    
Wind  
Wind Speed 3 mph ()    
Max Wind Speed 12 mph    
Max Gust Speed -    
Visibility 6.3 miles    
Events      
Averages and records for this station are not official NWS values.
T = Trace of Precipitation, MM = Missing Value Source: Averaged Metar Reports

Daily Weather History Graph

Daily Weather History Graph

Search for Another Location

Airport or City:

Trip Planner

Search our weather history database for the weather conditions in past years. The results will help you decide how hot, cold, wet, or windy it might be!

Date:

Astronomy

Mar. 08, 2013 Rise Set
Actual Time 6:52 AM CST 6:46 PM CST
Civil Twilight 6:30 AM CST 7:08 PM CST
Nautical Twilight 6:04 AM CST 7:33 PM CST
Astronomical Twilight 5:39 AM CST 7:58 PM CST
Moon 4:15 AM CST (3/8) 4:01 PM CST (3/8)
Length of Visible Light 12h 37m
Length of Day
11h 54m
Waning Crescent, 11% of the Moon is Illuminated
Mar 8
Waning Crescent
Mar 11
New
Mar 19
First Quarter
Mar 27
Full
Apr 2
Last Quarter

Hourly Weather History & Observations

Time (CST) Temp. Windchill Dew Point Humidity Pressure Visibility Wind Dir Wind Speed Gust Speed Precip Events Conditions
12:45 AM 44.6 °F - 30.2 °F 57% 30.42 in 7.0 mi Calm Calm - N/A   Clear
1:45 AM 41.0 °F - 28.4 °F 61% 30.40 in 7.0 mi Calm Calm - N/A   Clear
2:45 AM 39.2 °F - 28.4 °F 65% 30.39 in 7.0 mi Calm Calm - N/A   Clear
3:45 AM 39.2 °F - 30.2 °F 70% 30.39 in 7.0 mi Calm Calm - N/A   Clear
4:45 AM 37.4 °F - 30.2 °F 75% 30.39 in 7.0 mi Calm Calm - N/A   Clear
5:45 AM 37.4 °F - 30.2 °F 75% - 7.0 mi Calm Calm - N/A   Clear
6:45 AM 37.4 °F - 30.2 °F 75% 30.41 in 2.0 mi Calm Calm - N/A   Scattered Clouds
7:45 AM 41.0 °F 38.0 °F 32.0 °F 70% 30.43 in 3.0 mi NE 4.6 mph - N/A   Mostly Cloudy
8:45 AM 48.2 °F - 33.8 °F 58% 29.96 in 4.0 mi Calm Calm - N/A   Mostly Cloudy
9:44 AM 59.0 °F - 32.0 °F 36% 30.47 in 4.0 mi ESE 2.3 mph - N/A   Mostly Cloudy
10:46 AM 62.6 °F - 32.0 °F 32% 30.46 in 5.0 mi WNW 5.8 mph - N/A   Mostly Cloudy
11:44 AM 66.2 °F - 30.2 °F 26% 29.88 in 6.0 mi SSE 3.5 mph - N/A   Mostly Cloudy
12:44 PM 69.8 °F - 30.2 °F 23% 30.39 in 6.0 mi WSW 9.2 mph - N/A   Mostly Cloudy
1:42 PM 69.8 °F - 26.6 °F 20% 30.35 in 6.0 mi SE 6.9 mph - N/A   Mostly Cloudy
2:45 PM 69.8 °F - 28.4 °F 21% 29.68 in 7.0 mi SSW 11.5 mph - N/A   Mostly Cloudy
3:45 PM 71.6 °F - 28.4 °F 20% 30.31 in 7.0 mi SSE 9.2 mph - N/A   Mostly Cloudy
4:45 PM 69.8 °F - 28.4 °F 21% 30.32 in 7.0 mi West 10.4 mph - N/A   Mostly Cloudy
5:45 PM 66.2 °F - 30.2 °F 26% 29.87 in 8.0 mi South 5.8 mph - N/A   Mostly Cloudy
6:45 PM 62.6 °F - 28.4 °F 27% 30.35 in 7.0 mi West 10.4 mph - N/A   Mostly Cloudy
7:45 PM 55.4 °F - 28.4 °F 36% 30.37 in 7.0 mi NNW 6.9 mph - N/A   Partly Cloudy
8:45 PM 53.6 °F - 28.4 °F 38% 29.95 in 8.0 mi North - - N/A   Clear
9:45 PM 53.6 °F - 28.4 °F 38% 30.42 in 8.0 mi NW 5.8 mph - N/A   Partly Cloudy
10:45 PM 50.0 °F - 28.4 °F 43% 30.43 in 7.0 mi NW 6.9 mph - N/A   Partly Cloudy
11:45 PM 48.2 °F - 28.4 °F 46% 29.89 in 6.0 mi Calm Calm - N/A   Partly Cloudy